Location: Milton Keynes
(52.0316°N, 0.7531°W)
Time: 19:43:47
(UTC+01:00)

N. Korean satellite - Visible Passes

Search period start: 24 September 2022 00:00
Search period end: 04 October 2022 00:00
Orbit: 428 x 468 km, 97.3° (Epoch: 23 September)

Date Brightness Start Highest point End Pass type
(mag) Time Alt. Az. Time Alt. Az. Time Alt. Az.
24 Sep 9.7 05:23:11 10° ENE 05:24:58 14° E 05:26:42 10° ESE visible
25 Sep 7.0 06:19:09 10° NNE 06:22:26 60° E 06:25:41 10° S visible
26 Sep 9.1 05:44:00 10° NE 05:46:41 23° E 05:49:21 10° SSE visible
28 Sep 7.9 06:05:05 10° NNE 06:08:14 39° E 06:11:19 10° S visible
29 Sep 9.6 05:30:09 10° NE 05:32:18 16° E 05:34:26 10° SE visible
30 Sep 6.6 06:26:15 10° NNE 06:29:33 74° ESE 06:32:49 10° S visible
01 Oct 8.8 05:50:49 10° NE 05:53:40 27° E 05:56:30 10° SSE visible
02 Oct 9.9 05:16:30 10° ENE 05:17:35 11° E 05:18:40 10° ESE visible
03 Oct 7.5 06:11:39 10° NNE 06:14:51 47° E 06:18:01 10° S visible
